Вернуться в каталог

STARLINK-33593

АктивенСвязьVLEO
NORAD 62780·PAYLOAD·🇺🇸 United States

Запущен Jan 21, 2025 с Vandenberg Space Force Base

Loading…

Ближайшие Пролёты (ближайшие 24 часа)

TLE

СвежийSource: CelesTrak SupGP

Эпоха: Sep 14, 2026, 21:32 UTC

1 62780C 25015Y   26257.89770833 -.00060865  00000+0 -17979-2 0  2571
2 62780  53.1579 159.9444 0001211  98.4032 178.2965 15.34428195    13

Отслеживайте STARLINK-33593 в реальном времени с AllMySat

Download on the App Store